• Join FlightAware (Why Join?)
  • Login
  • US Flag 
08:45PM EST


 

Airport Tracker/Info


-or-


 

Live Flight TrackerFlight Track Log ✈ N8253Z ✈ 27-Sep-2013 ✈ KORH - KSYR

Flight Track Log - Related Links

Times and Time Zones

All times are in EDT time to prevent confusion due to time zone crossing. See the N8253Z flight status page for this flight to view local times or setup timezone preferences in your user account.

Time Position Orientation Groundspeed Altitude Reporting Facility
EDT Latitude Longitude Course Direction KTS MPH feet Rate Location/Type
03:14PM 42.2790 -71.8900 295° West 114 131 1,200  Level FlightAware
03:14PM 42.2800 -71.8930 294° West 118 136 1,300 1,333 Climbing FlightAware
03:14PM 42.2800 -71.8960 270° West 123 142 1,400 1,286 Climbing FlightAware
03:14PM 42.2770 -71.9130 257° West 119 137 1,900 1,200 Climbing FlightAware
03:15PM 42.2740 -71.9290 256° West 119 137 2,300 1,077 Climbing FlightAware
03:15PM 42.2720 -71.9410 257° West 120 138 2,600 637 Climbing FlightAware
03:16PM 42.2680 -71.9600 254° West 121 139 622 Descending FlightAware
03:16PM 42.2660 -71.9690 253° West 120 138 991 Level FlightAware
03:16PM 42.2640 -71.9850 260° West 123 142 1,020 Level FlightAware
03:17PM 42.2670 -72.0050 281° West 117 135 1,067 Level FlightAware
03:17PM 42.2680 -72.0140 279° West 113 130 1,141 Level FlightAware
03:17PM 42.2710 -72.0270 287° West 112 129 1,176 Level FlightAware
03:18PM 42.2760 -72.0450 291° West 119 137 1,239 Level FlightAware
03:18PM 42.2800 -72.0580 293° West 116 133 1,331 Level FlightAware
03:18PM 42.2840 -72.0730 290° West 121 139 1,413 Level FlightAware
03:19PM 42.2890 -72.0870 296° West 118 136 1,510 Level FlightAware
03:19PM 42.2930 -72.1020 290° West 120 138 1,615 Level FlightAware
03:19PM 42.2960 -72.1100 297° West 112 129 1,750 Level FlightAware
03:20PM 42.3010 -72.1250 294° West 111 128 1,841 Level FlightAware
03:20PM 42.3050 -72.1390 291° West 113 130 2,035 Level FlightAware
03:20PM 42.3070 -72.1520 282° West 115 132 2,232 Level FlightAware
03:21PM 42.3100 -72.1670 285° West 115 132 2,471 Level FlightAware
03:21PM 42.3140 -72.1850 287° West 142 163 2,766 Level FlightAware
03:21PM 42.3190 -72.2000 294° West 151 174 3,231 Level FlightAware
03:22PM 42.3240 -72.2180 291° West 163 188 3,696 Level FlightAware
03:22PM 42.3300 -72.2380 292° West 160 184 4,400 Level FlightAware
03:22PM 42.3370 -72.2600 293° West 163 188 5,435 Level FlightAware
03:23PM 42.3420 -72.2740 296° West 164 189 7,700 Level FlightAware
03:23PM 42.3500 -72.3010 292° West 166 191 10,267 Level FlightAware
03:23PM 42.3543 -72.3174 289° West 166 191 7,700 9,429 Climbing FlightAware ADS-B (KSNC)
03:24PM 42.3616 -72.3450 290° West 165 190 7,700  Level FlightAware ADS-B (KSNC)
03:24PM 42.3726 -72.3846 291° West 164 189 7,700  Level FlightAware ADS-B (KSNC)
03:25PM 42.3830 -72.4230 290° West 164 189  Descending FlightAware
03:25PM 42.3856 -72.4312 293° West 166 191 7,700 17,111 Climbing FlightAware ADS-B (KSNC)
03:26PM 42.3873 -72.4373 290° West 164 189 7,700  Level FlightAware ADS-B (KSNC)
03:26PM 42.3969 -72.4731 290° West 166 191 7,700  Level FlightAware ADS-B (KSNC)
03:26PM 42.4033 -72.4973 290° West 166 191 7,700 -152 Level FlightAware ADS-B (KSNC)
03:27PM 42.4140 -72.5380 290° West 164 189 -158 Descending FlightAware
03:27PM 42.4210 -72.5590 294° West 172 198 648 Level FlightAware
03:28PM 42.4260 -72.5780 290° West 180 207 673 Level FlightAware
03:28PM 42.4320 -72.5980 292° West 182 209 696 Level FlightAware
03:28PM 42.4390 -72.6240 290° West 181 208 722 Level FlightAware
03:29PM 42.4450 -72.6460 290° West 182 209 758 Level FlightAware
03:29PM 42.4490 -72.6590 293° West 184 212 794 Level FlightAware
03:29PM 42.4550 -72.6820 289° West 183 211 813 Level FlightAware
03:30PM 42.4610 -72.7040 290° West 188 216 853 Level FlightAware
03:30PM 42.4680 -72.7300 290° West 195 224 897 Level FlightAware
03:30PM 42.4750 -72.7560 290° West 188 216 948 Level FlightAware
03:31PM 42.4810 -72.7780 290° West 187 215 1,011 Level FlightAware
03:31PM 42.4870 -72.7990 291° West 181 208 1,070 Level FlightAware
03:31PM 42.4920 -72.8190 289° West 177 204 1,137 Level FlightAware
03:32PM 42.4990 -72.8430 292° West 172 198 1,208 Level FlightAware
03:32PM 42.5020 -72.8570 286° West 171 197 1,302 Level FlightAware
03:32PM 42.5070 -72.8760 290° West 170 196 1,376 Level FlightAware
03:33PM 42.5140 -72.9000 292° West 170 196 1,482 Level FlightAware
03:33PM 42.5170 -72.9120 289° West 170 196 1,641 Level FlightAware
03:33PM 42.5230 -72.9360 289° West 170 196 1,726 Level FlightAware
03:34PM 42.5270 -72.9510 290° West 170 196 1,947 Level FlightAware
03:34PM 42.5340 -72.9790 289° West 169 194 2,116 Level FlightAware
03:34PM 42.5390 -72.9990 289° West 171 197 2,524 Level FlightAware
03:35PM 42.5440 -73.0170 291° West 170 196 2,928 Level FlightAware
03:35PM 42.5500 -73.0370 292° West 171 197 3,453 Level FlightAware
03:35PM 42.5560 -73.0590 290° West 171 197 4,207 Level FlightAware
03:36PM 42.5640 -73.0910 289° West 170 196 5,719 Level FlightAware
03:37PM 42.5714 -73.1281 289° West 172 198 6,100 4,022 Climbing Boston Center
03:38PM 42.5897 -73.1875 293° West 172 198 6,100  Level Boston Center
03:39PM 42.6039 -73.2525 287° West 173 199 6,100  Level Boston Center
03:40PM 42.6222 -73.3119 293° West 173 199 6,100  Level Boston Center
03:41PM 42.6403 -73.3800 290° West 174 200 6,100  Level Boston Center
03:42PM 42.6544 -73.4394 288° West 170 196 6,100  Level Boston Center
03:43PM 42.6725 -73.5019 291° West 167 192 6,100 -31 Level Boston Center
03:49PM 42.7650 -73.8940 291° West 5,800 -35 Descending FlightAware
03:51PM 42.7860 -74.0140 283° West 165 190 5,800  Level FlightAware
03:52PM 42.7910 -74.0450 282° West 166 191 5,800  Level FlightAware
03:52PM 42.7940 -74.0630 283° West 167 192 5,800  Level FlightAware
03:53PM 42.7990 -74.0950 282° West 167 192 5,800  Level FlightAware
03:53PM 42.8020 -74.1150 282° West 168 193 5,800  Level FlightAware
03:53PM 42.8050 -74.1310 284° West 168 193 5,800  Level FlightAware
03:53PM 42.8090 -74.1540 283° West 168 193 5,800  Level FlightAware
03:54PM 42.8120 -74.1760 281° West 168 193 5,800  Level FlightAware
03:54PM 42.8090 -74.1540 101° East 168 193 5,800  Level FlightAware
03:55PM 42.8130 -74.1780 283° West 168 193 5,800 220 Level FlightAware
03:56PM 42.8311 -74.2972 283° West 170 196 6,100 250 Climbing Boston Center
03:56PM 42.8350 -74.3172 285° West 169 194 6,100  Level Boston Center
03:57PM 42.8367 -74.3428 275° West 169 194 6,100  Level Boston Center
03:58PM 42.8503 -74.4111 285° West 170 196 6,100  Level Boston Center
03:59PM 42.8594 -74.4767 281° West 169 194 6,100  Level Boston Center
04:01PM 42.8800 -74.6019 283° West 171 197 6,100  Level Boston Center
04:02PM 42.8914 -74.6647 284° West 172 198 6,100  Level Boston Center
04:03PM 42.9006 -74.7217 282° West 172 198 6,100  Level Boston Center
04:04PM 42.9097 -74.7872 281° West 173 199 6,100  Level Boston Center
04:05PM 42.9189 -74.8500 281° West 174 200 6,100  Level Boston Center
04:06PM 42.9319 -74.9214 284° West 173 199 6,100 -148 Level Boston Center
04:11PM 42.9910 -75.2950 284° West 175 201 -155 Descending FlightAware
04:12PM 42.9960 -75.3260 282° West 175 201 168 Level FlightAware
04:12PM 42.9990 -75.3460 282° West 177 204 173 Level FlightAware
04:13PM 43.0030 -75.3690 283° West 176 203 176 Level FlightAware
04:13PM 43.0060 -75.3910 281° West 175 201 180 Level FlightAware
04:13PM 43.0100 -75.4150 283° West 175 201 185 Level FlightAware
04:14PM 43.0130 -75.4370 281° West 176 203 189 Level FlightAware
04:14PM 43.0160 -75.4590 281° West 176 203 194 Level FlightAware
04:14PM 43.0190 -75.4850 279° West 175 201 199 Level FlightAware
04:15PM 43.0230 -75.5070 284° West 175 201 205 Level FlightAware
04:15PM 43.0250 -75.5200 282° West 175 201 210 Level FlightAware
04:15PM 43.0290 -75.5440 283° West 174 200 213 Level FlightAware
04:16PM 43.0320 -75.5690 279° West 175 201 220 Level FlightAware
04:16PM 43.0340 -75.5810 283° West 175 201 227 Level FlightAware
04:16PM 43.0390 -75.6080 284° West 174 200 231 Level FlightAware
04:17PM 43.0420 -75.6300 281° West 175 201 239 Level FlightAware
04:17PM 43.0440 -75.6430 282° West 175 201 247 Level FlightAware
04:17PM 43.0480 -75.6700 281° West 175 201 251 Level FlightAware
04:18PM 43.0510 -75.6910 281° West 174 200 261 Level FlightAware
04:18PM 43.0530 -75.7040 282° West 174 200 270 Level FlightAware
04:18PM 43.0550 -75.7210 279° West 174 200 275 Level FlightAware
04:18PM 43.0590 -75.7430 284° West 173 199 284 Level FlightAware
04:19PM 43.0620 -75.7670 280° West 172 198 293 Level FlightAware
04:19PM 43.0650 -75.7890 281° West 170 196 305 Level FlightAware
04:19PM 43.0670 -75.8090 278° West 168 193 317 Level FlightAware
04:20PM 43.0680 -75.8220 276° West 166 191 330 Level FlightAware
04:20PM 43.0700 -75.8470 276° West 168 193 338 Level FlightAware
04:20PM 43.0720 -75.8710 277° West 167 192 356 Level FlightAware
04:21PM 43.0730 -75.8930 274° West 169 194 374 Level FlightAware
04:21PM 43.0750 -75.9140 277° West 167 192 393 Level FlightAware
04:21PM 43.0770 -75.9350 277° West 167 192 413 Level FlightAware
04:22PM 43.0690 -75.9620 248° West 165 190 435 Level FlightAware
04:22PM 43.0600 -75.9810 237° Southwest 166 191 471 Level FlightAware
04:22PM 43.0520 -75.9990 239° Southwest 171 197 503 Level FlightAware
04:23PM 43.0410 -76.0220 237° Southwest 182 209 536 Level FlightAware
04:23PM 43.0400 -76.0270 255° West 183 211 583 Level FlightAware
04:23PM 43.0390 -76.0330 257° West 182 209 591 Level FlightAware
04:23PM 43.0360 -76.0580 261° West 168 193 604 Level FlightAware
04:24PM 43.0330 -76.0780 258° West 163 188 659 Level FlightAware
04:24PM 43.0320 -76.0890 263° West 159 183 717 Level FlightAware
04:24PM 43.0290 -76.1150 261° West 155 178 757 Level FlightAware
04:25PM 43.0280 -76.1270 264° West 151 174 862 Level FlightAware
04:25PM 43.0250 -76.1490 259° West 154 177 920 Level FlightAware
04:25PM 43.0230 -76.1660 261° West 155 178 1,066 Level FlightAware
04:26PM 43.0270 -76.1930 281° West 140 161 1,209 Level FlightAware
04:26PM 43.0310 -76.2100 288° West 131 151 1,558 Level FlightAware
04:26PM 43.0330 -76.2190 287° West 131 151 1,929 Level FlightAware
04:27PM 43.0360 -76.2380 282° West 119 137 2,250 Level FlightAware
04:27PM 43.0390 -76.2500 289° West 117 135 3,375 Level FlightAware
04:28PM 43.0550 -76.2430 18° North 140 161 2,700 2,654 Climbing FlightAware
04:28PM 43.0660 -76.2310 39° Northeast 139 160 2,300 -1,000 Descending FlightAware
04:28PM 43.0760 -76.2200 39° Northeast 138 159 2,000 -938 Descending FlightAware
04:28PM 43.0810 -76.2130 46° Northeast 137 158 1,800 -833 Descending FlightAware
04:29PM 43.0930 -76.1980 42° Northeast 127 146 1,500 -720 Descending FlightAware
04:29PM 43.1020 -76.1830 51° Northeast 116 133 1,200 -882 Descending FlightAware
04:29PM 43.1040 -76.1780 61° Northeast 114 131 1,000 -1,125 Descending FlightAware
04:30PM 43.1050 -76.1730 75° East 111 128 900 -857 Descending FlightAware
04:30PM 43.1070 -76.1600 78° East 103 119 600 -600 Descending FlightAware
04:30PM 43.1070 -76.1480 90° East 87 100 500 -353 Descending FlightAware
04:30PM 43.1080 -76.1400 80° East 84 97 400 -150 Descending FlightAware
04:31PM 43.1080 -76.1290 90° East 84 97 400  Level FlightAware